Time,TemperatureF,DewpointF,PressureIn,WindDirection,WindDirectionDegrees,WindSpeedMPH,WindSpeedGustMPH,Humidity,HourlyPrecipIn,Conditions,Clouds,dailyrainin,SoftwareType,DateUTC
2013-10-23 00:23:00,49.0,47.0,29.81,NW,325,0.0,9.0,93,0.00,,,0.02,,2013-10-23 05:23:00,
2013-10-23 00:52:00,48.0,46.0,29.81,NW,316,0.0,6.0,94,0.02,,,0.02,,2013-10-23 05:52:00,
2013-10-23 01:22:00,48.0,47.0,29.81,NW,315,0.0,3.0,95,0.00,,,0.00,,2013-10-23 06:22:00,
2013-10-23 01:52:00,48.0,47.0,29.82,NNW,329,2.0,4.0,95,0.00,,,0.00,,2013-10-23 06:52:00,
2013-10-23 02:12:00,47.0,46.0,29.82,NW,308,0.0,6.0,95,0.00,,,0.00,,2013-10-23 07:12:00,
2013-10-23 02:22:00,47.0,46.0,29.82,NW,308,0.0,6.0,95,0.00,,,0.00,,2013-10-23 07:22:00,
2013-10-23 02:52:00,47.0,46.0,29.82,NW,315,1.0,7.0,95,0.00,,,0.00,,2013-10-23 07:52:00,
2013-10-23 03:22:00,47.0,45.0,29.83,NNW,336,5.0,10.0,94,0.00,,,0.00,,2013-10-23 08:22:00,
2013-10-23 03:52:00,46.0,44.0,29.84,NE,44,2.0,8.0,91,0.00,,,0.00,,2013-10-23 08:52:00,
2013-10-23 04:22:00,45.0,41.0,29.85,NW,312,5.0,11.0,87,0.00,,,0.00,,2013-10-23 09:22:00,
2013-10-23 04:53:00,44.0,38.0,29.87,NNW,335,0.0,12.0,80,0.00,,,0.00,,2013-10-23 09:53:00,
2013-10-23 05:23:00,43.0,38.0,29.88,WNW,298,2.0,18.0,81,0.00,,,0.00,,2013-10-23 10:23:00,
2013-10-23 05:53:00,43.0,38.0,29.90,NW,320,1.0,12.0,82,0.00,,,0.00,,2013-10-23 10:53:00,
2013-10-23 06:22:00,42.0,37.0,29.92,North,359,2.0,12.0,83,0.00,,,0.00,,2013-10-23 11:22:00,
2013-10-23 06:52:00,42.0,36.0,29.93,East,96,6.0,17.0,80,0.00,,,0.00,,2013-10-23 11:52:00,
2013-10-23 07:22:00,42.0,37.0,29.94,NW,305,2.0,18.0,81,0.00,,,0.00,,2013-10-23 12:22:00,
2013-10-23 07:52:00,42.0,36.0,29.96,North,0,4.0,10.0,79,0.00,,,0.00,,2013-10-23 12:52:00,
2013-10-23 08:22:00,42.0,36.0,29.98,NNW,339,0.0,14.0,78,0.00,,,0.00,,2013-10-23 13:22:00,
2013-10-23 08:52:00,42.0,35.0,29.99,North,359,2.0,10.0,76,0.00,,,0.00,,2013-10-23 13:52:00,
2013-10-23 09:22:00,43.0,36.0,30.00,NW,318,1.0,12.0,76,0.00,,,0.00,,2013-10-23 14:22:00,
2013-10-23 09:52:00,44.0,35.0,30.01,NNW,329,8.0,14.0,70,0.00,,,0.00,,2013-10-23 14:52:00,
2013-10-23 10:22:00,45.0,36.0,30.02,North,1,3.0,11.0,70,0.00,,,0.00,,2013-10-23 15:22:00,
2013-10-23 10:53:00,46.0,36.0,30.02,WNW,284,2.0,12.0,68,0.00,,,0.00,,2013-10-23 15:53:00,
2013-10-23 11:23:00,45.0,34.0,30.03,WNW,291,4.0,10.0,65,0.01,,,0.01,,2013-10-23 16:23:00,
2013-10-23 11:53:00,47.0,34.0,30.03,WNW,288,5.0,12.0,60,0.01,,,0.01,,2013-10-23 16:53:00,
2013-10-23 12:22:00,49.0,36.0,30.03,NNW,339,5.0,13.0,60,0.00,,,0.01,,2013-10-23 17:22:00,
2013-10-23 12:52:00,48.0,34.0,30.02,NW,308,0.0,16.0,57,0.00,,,0.01,,2013-10-23 17:52:00,
2013-10-23 13:22:00,49.0,35.0,30.02,WNW,294,1.0,11.0,59,0.00,,,0.01,,2013-10-23 18:22:00,
2013-10-23 13:51:00,49.0,34.0,30.00,North,356,7.0,10.0,57,0.00,,,0.01,,2013-10-23 18:51:00,
2013-10-23 14:12:00,50.0,35.0,30.00,North,359,1.0,10.0,57,0.00,,,0.01,,2013-10-23 19:12:00,
2013-10-23 14:22:00,50.0,36.0,30.00,NNW,344,1.0,10.0,59,0.00,,,0.01,,2013-10-23 19:22:00,
2013-10-23 14:53:00,51.0,35.0,30.00,NW,316,1.0,14.0,54,0.00,,,0.01,,2013-10-23 19:53:00,
2013-10-23 15:22:00,50.0,34.0,29.99,NW,318,0.0,12.0,54,0.00,,,0.01,,2013-10-23 20:22:00,
2013-10-23 15:52:00,52.0,34.0,29.99,NW,323,2.0,12.0,51,0.00,,,0.01,,2013-10-23 20:52:00,
2013-10-23 16:22:00,51.0,34.0,30.00,NW,319,1.0,12.0,52,0.00,,,0.01,,2013-10-23 21:22:00,
2013-10-23 16:54:00,50.0,35.0,30.00,West,272,1.0,8.0,57,0.00,,,0.01,,2013-10-23 21:54:00,
2013-10-23 17:24:00,49.0,34.0,30.00,NNW,340,5.0,10.0,57,0.00,,,0.01,,2013-10-23 22:24:00,
2013-10-23 17:54:00,49.0,35.0,30.01,West,268,0.0,8.0,59,0.00,,,0.01,,2013-10-23 22:54:00,
2013-10-23 18:22:00,47.0,35.0,30.00,NW,322,0.0,6.0,63,0.00,,,0.01,,2013-10-23 23:22:00,
2013-10-23 18:52:00,45.0,38.0,30.00,NW,320,0.0,6.0,75,0.00,,,0.01,,2013-10-23 23:52:00,
2013-10-23 19:22:00,42.0,37.0,30.01,NW,320,0.0,1.0,81,0.00,,,0.01,,2013-10-24 00:22:00,
2013-10-23 19:52:00,40.0,36.0,30.01,NW,322,0.0,0.0,85,0.00,,,0.01,,2013-10-24 00:52:00,
2013-10-23 20:21:00,40.0,37.0,30.01,NW,320,0.0,0.0,88,0.00,,,0.01,,2013-10-24 01:21:00,
2013-10-23 20:52:00,40.0,38.0,30.00,NW,322,0.0,1.0,91,0.00,,,0.01,,2013-10-24 01:52:00,
2013-10-23 21:12:00,41.0,39.0,30.01,NW,320,0.0,1.0,92,0.00,,,0.01,,2013-10-24 02:12:00,
2013-10-23 21:22:00,41.0,39.0,30.01,NW,320,0.0,1.0,92,0.00,,,0.01,,2013-10-24 02:22:00,
2013-10-23 22:22:00,44.0,42.0,30.01,NW,320,0.0,0.0,91,0.00,,,0.01,,2013-10-24 03:22:00,
2013-10-23 22:54:00,44.0,41.0,30.03,NW,322,0.0,0.0,90,0.00,,,0.01,,2013-10-24 03:54:00,
2013-10-23 23:24:00,45.0,42.0,30.03,NW,320,0.0,0.0,90,0.00,,,0.01,,2013-10-24 04:24:00,
2013-10-23 23:54:00,45.0,42.0,30.03,NW,320,0.0,0.0,90,0.00,,,0.01,,2013-10-24 04:54:00,